Other Public Products
Issued by NWS Charleston, SC

Current Version | Previous Version | Graphics & Text | Print | Product List | Glossary On
Versions: 1 2 3 4 5 6 7 8 9 10 11 12 13 14 15 16 17 18 19 20 21 22 23 24 25 26 27 28 29 30 31 32 33 34 35 36 37 38 39 40 41 42 43 44 45 46 47 48 49 50
000 FPUS82 KCHS 251427 OPUCHS TEST...KCHS/KSAV Gateway Observations...TEST National Weather Service Charleston SC 1000 AM EDT SUN JUN 25 2017 NOTE: "fair" indicates few or no clouds below 12,000 feet with no significant weather and/or obstructions to visibility. SCZ050-WAZ558-NCZ071-TXZ119-213-PAZ071-DCZ001-FLZ074-172-MI076- NYZ176-178-MAZ016-IL014-TNZ027-NJZ106-GAZ044-MD014-251500- ...Gateway Observations for Charleston International... CITY SKY/WX TMP DP RH WIND PRES REMARKS Chas Airport CLOUDY 84 71 65 NW6 30.07S Seattle MOSUNNY 69 52 54 N3 29.96S Charlotte CLOUDY 76 64 66 N7 30.11R Dallas DFW PTSUNNY 76 65 68 E8 30.21R Dallas Love PTSUNNY 75 63 66 E10 30.21S Philladelphia MOSUNNY 79 57 46 CALM 30.01S Wash National PTSUNNY 79 60 52 N13 30.04S Baltimore PTSUNNY 77 61 57 NW8 30.03R Miami PTSUNNY 87 73 62 SE12 30.12R HX 94 Detroit PTSUNNY 66 52 60 W16G23 30.02S Newark MOSUNNY 78 55 44 CALM 29.99R Laguardia PTSUNNY 79 57 46 VRB5 29.98S J F K PTSUNNY 79 59 50 S6 30.00R Boston Logan MOSUNNY 77 52 41 W12G20 29.94S Ft. Lauderdale MOSUNNY 86 72 62 SE10 30.11R HX 92 Chicago O`Hare MOSUNNY 63 49 60 W12 30.10S Chicago Midway MOSUNNY 65 48 54 W15 30.11R Houston Bush PTSUNNY 76 72 87 N8 30.14R Houston Hobby CLOUDY 78 73 84 E5 30.13R Nashville MOSUNNY 73 54 51 N7 30.23S Atlanta CLOUDY 71 64 78 NW8 30.16R $$ GAZ044-118-TXZ119-213-NCZ071-DCZ001-MDZ014-506-PAZ021-071-NJZ106- NYZ176-178-MAZ106-OHZ011-021-055-MIZ076-KYZ091-ILZ014-INZ047- MNZ060-ONZ431-251500- ...Gateway Observations for Savannah International... CITY SKY/WX TMP DP RH WIND PRES REMARKS Savannah Arpt PTSUNNY 86 74 67 S6 30.08S HX 94 Atlanta CLOUDY 71 64 78 NW8 30.16R Charlotte CLOUDY 76 64 66 N7 30.11R Dallas DFW PTSUNNY 76 65 68 E8 30.21R Houston Bush PTSUNNY 76 72 87 N8 30.14R Wash National PTSUNNY 79 60 52 N13 30.04S Wash Dulles PTSUNNY 76 57 51 NW8 30.04F Baltimore PTSUNNY 77 61 57 NW8 30.03R Philadelphia MOSUNNY 79 57 46 CALM 30.01S Newark MOSUNNY 78 55 44 CALM 29.99R Laguardia PTSUNNY 79 57 46 VRB5 29.98S J F K PTSUNNY 79 59 50 S6 30.00R Boston MOSUNNY 77 52 41 W12G20 29.94S Pittsburg MOSUNNY 69 54 58 W7 30.08R Akron MOSUNNY 70 46 42 W14 30.08S Cleveland MOSUNNY 71 50 47 SW10 30.06F Cincinnati SUNNY 69 50 50 W12 30.16S Columbus SUNNY 70 51 50 SW12 30.13S Detroit PTSUNNY 66 52 60 W16G23 30.02S Chicago O`Hare MOSUNNY 63 49 60 W12 30.10S Minneapolis CLOUDY 56 49 77 NW13 30.14R Indianapolis MOSUNNY 67 50 54 W12 30.16R Toronto Canada MOSUNNY 70 54 56 SW13G18 29.94S $$

USA.gov is the U.S. government's official web portal to all federal, state and local government web resources and services.